Location: Six Mile Lake
(44.9000°N, 79.7170°W)
Time: 17:46:17
(UTC-04:00)

EO-79 - Visible Passes

Search period start: 27 June 2022 00:00
Search period end: 07 July 2022 00:00
Orbit: 587 x 605 km, 98.0° (Epoch: 27 June)

Date Brightness Start Highest point End Pass type
(mag) Time Alt. Az. Time Alt. Az. Time Alt. Az.
27 Jun ? 02:46:18 10° NNE 02:50:26 52° E 02:52:00 33° SSE visible
27 Jun ? 04:23:00 10° NNW 04:25:39 17° WNW 04:28:19 10° WSW visible
28 Jun ? 02:56:10 10° NNE 03:00:22 67° ESE 03:02:01 35° S visible
28 Jun ? 04:33:24 10° NNW 04:35:28 13° WNW 04:37:31 10° W visible
29 Jun ? 03:06:03 10° NNE 03:10:18 86° ESE 03:12:02 35° S visible
29 Jun ? 04:44:13 10° NW 04:45:15 11° WNW 04:46:17 10° WNW visible
30 Jun ? 01:43:14 10° ENE 01:44:05 10° E 01:44:56 10° E visible
30 Jun ? 03:15:58 10° N 03:20:12 75° WNW 03:22:03 33° SSW visible
01 Jul ? 01:51:58 10° ENE 01:54:07 14° E 01:55:23 12° ESE visible
01 Jul ? 03:25:56 10° N 03:30:06 58° WNW 03:32:03 29° SW visible
02 Jul ? 02:01:18 10° NE 02:04:07 17° E 02:05:23 15° ESE visible
02 Jul ? 03:35:55 10° N 03:39:58 46° WNW 03:42:03 25° SW visible
03 Jul ? 02:10:49 10° NE 02:14:07 21° E 02:15:23 19° ESE visible
03 Jul ? 03:45:57 10° N 03:49:50 36° WNW 03:52:03 21° WSW visible
04 Jul ? 02:20:28 10° NE 02:24:05 27° E 02:25:22 23° SE visible
04 Jul ? 03:56:00 10° N 03:59:40 29° WNW 04:02:02 17° WSW visible
05 Jul ? 02:30:10 10° NNE 02:34:03 34° E 02:35:21 28° SE visible
05 Jul ? 04:06:06 10° NNW 04:09:30 24° WNW 04:12:01 14° WSW visible
06 Jul ? 02:39:55 10° NNE 02:43:59 43° E 02:45:20 32° SE visible
06 Jul ? 04:16:16 10° NNW 04:19:18 19° WNW 04:22:00 11° WSW visible
